EW2730 Weather Reports


Display with metric or nautical units.
time (UTC)temp
F
wind
direction
speed
MPH
gust
MPH
rain 1hr
in
rain 24hr
in
rain mn
in
humidity
%
barometer
mb
20181022050046 40 251 9.0 15.0 0.00 0.03 0.00 86
20181022044515 39 225 11.0 15.0 0.00 0.03 0.00 86
20181022043119 39 269 8.0 15.0 0.00 0.03 0.00 84
20181022041741 39 216 7.0 13.0 0.00 0.03 0.00 83
20181022040134 39 227 10.0 15.0 0.00 0.03 0.00 83
20181022034706 39 211 8.0 11.0 0.00 0.03 0.03 82
20181022033136 38 203 7.0 10.0 0.00 0.03 0.03 85
20181022031559 37 205 7.0 12.0 0.00 0.03 0.03 89
20181022030142 35 150 1.0 3.0 0.01 0.03 0.03 92
20181022024555 35 19 2.0 3.0 0.01 0.03 0.03 90
20181022023049 36 260 1.0 3.0 0.01 0.03 0.03 90
20181022021549 36 285 0.0 4.0 0.01 0.03 0.03 88
20181022020107 37 269 6.0 16.0 0.00 0.02 0.02 88
20181022014616 36 261 2.0 4.0 0.00 0.02 0.02 90
20181022013110 35 24 0.0 2.0 0.01 0.02 0.02 90
20181022011518 35 24 1.0 2.0 0.01 0.02 0.02 89
20181022010012 35 305 1.0 3.0 0.02 0.02 0.02 88
20181022004515 35 251 4.0 10.0 0.02 0.02 0.02 89
20181022003035 35 213 5.0 10.0 0.01 0.01 0.01 90
20181022001503 37 237 10.0 17.0 0.00 0.00 0.00 85
20181022000124 36 245 1.0 4.0 0.00 0.00 0.00 88
20181021234605 36 246 2.0 9.0 0.00 0.00 0.00 87
20181021233145 36 217 7.0 11.0 0.00 0.00 0.00 87
20181021231559 37 232 5.0 10.0 0.00 0.00 0.00 82
20181021230048 37 263 2.0 6.0 0.00 0.00 0.00 77
20181021224611 37 273 3.0 8.0 0.00 0.00 0.00 76
20181021223058 38 252 2.0 6.0 0.00 0.00 0.00 74
20181021221548 38 250 4.0 9.0 0.00 0.00 0.00 74
20181021220133 37 261 5.0 10.0 0.00 0.00 0.00 73
20181021214646 37 261 4.0 12.0 0.00 0.00 0.00 73
20181021213045 37 267 4.0 10.0 0.00 0.00 0.00 72
20181021211551 38 250 7.0 12.0 0.00 0.00 0.00 72
20181021210046 37 257 4.0 12.0 0.00 0.00 0.00 74
20181021204533 37 261 6.0 14.0 0.00 0.00 0.00 72
20181021203032 37 283 5.0 11.0 0.00 0.00 0.00 72
20181021201524 37 275 6.0 10.0 0.00 0.00 0.00 73
20181021200043 37 269 6.0 10.0 0.00 0.00 0.00 74
20181021194511 36 279 2.0 10.0 0.00 0.00 0.00 78
20181021193005 36 269 2.0 12.0 0.00 0.00 0.00 79
20181021191640 36 246 6.0 14.0 0.00 0.00 0.00 78
20181021190146 37 242 10.0 16.0 0.00 0.00 0.00 72
20181021184613 37 243 4.0 11.0 0.00 0.00 0.00 73
20181021183107 37 240 5.0 11.0 0.00 0.00 0.00 70
20181021181558 37 248 4.0 9.0 0.00 0.00 0.00 74
20181021180055 37 293 4.0 11.0 0.00 0.00 0.00 75
20181021174644 36 254 6.0 15.0 0.00 0.00 0.00 76
20181021173046 37 240 5.0 11.0 0.00 0.00 0.00 69
20181021171539 37 255 2.0 11.0 0.00 0.00 0.00 70
20181021170025 36 341 4.0 10.0 0.00 0.00 0.00 70
20181021164524 36 265 4.0 12.0 0.00 0.00 0.00 66
20181021163010 36 288 6.0 12.0 0.00 0.00 0.00 70
20181021161507 36 257 8.0 13.0 0.00 0.00 0.00 70
20181021160141 36 276 6.0 12.0 0.00 0.00 0.00 69
20181021154657 36 68 3.0 10.0 0.00 0.00 0.00 69
20181021153221 35 344 6.0 12.0 0.00 0.00 0.00 69
20181021151642 35 288 4.0 10.0 0.00 0.00 0.00 70
20181021150130 35 260 2.0 12.0 0.00 0.00 0.00 74
20181021144604 35 11 2.0 11.0 0.00 0.00 0.00 72
20181021143116 34 310 3.0 8.0 0.00 0.00 0.00 74
20181021141603 34 325 2.0 9.0 0.00 0.00 0.00 76
20181021140036 33 290 2.0 8.0 0.00 0.00 0.00 77
20181021134533 33 28 3.0 13.0 0.00 0.00 0.00 80
20181021133058 32 332 2.0 8.0 0.00 0.00 0.00 80
20181021131517 32 318 5.0 15.0 0.00 0.00 0.00 81
20181021130014 32 54 5.0 11.0 0.00 0.00 0.00 82
20181021123221 32 233 3.0 11.0 0.00 0.00 0.00 82
20181021121617 32 360 2.0 8.0 0.00 0.00 0.00 82
20181021120134 32 336 3.0 13.0 0.00 0.00 0.00 80
20181021114635 33 240 3.0 10.0 0.00 0.00 0.00 77
20181021113120 33 355 3.0 9.0 0.00 0.00 0.00 76
20181021111601 33 20 4.0 12.0 0.00 0.00 0.00 75
20181021110100 33 16 3.0 10.0 0.00 0.00 0.00 74
20181021104613 33 346 2.0 15.0 0.00 0.00 0.00 74
20181021103058 33 355 1.0 9.0 0.00 0.00 0.00 73
20181021101553 33 51 2.0 8.0 0.00 0.00 0.00 71
20181021100022 33 34 2.0 14.0 0.00 0.00 0.00 69
20181021094509 33 22 6.0 14.0 0.00 0.00 0.00 68
20181021093006 33 342 4.0 12.0 0.00 0.00 0.00 69
20181021091623 33 309 4.0 14.0 0.00 0.00 0.00 70
20181021090102 33 260 4.0 13.0 0.00 0.00 0.00 68
20181021084647 33 12 4.0 16.0 0.00 0.00 0.00 68
20181021083116 33 290 3.0 11.0 0.00 0.00 0.00 68
20181021081708 32 9 2.0 18.0 0.00 0.00 0.00 70
20181021080054 32 233 1.0 11.0 0.00 0.00 0.00 72
20181021074611 32 324 4.0 16.0 0.00 0.00 0.00 70
20181021073039 33 289 6.0 17.0 0.00 0.00 0.00 68
20181021071611 33 350 4.0 14.0 0.00 0.00 0.00 68
20181021070030 33 14 4.0 17.0 0.00 0.00 0.00 66
20181021064521 33 278 4.0 19.0 0.00 0.01 0.00 66
20181021063033 33 316 4.0 16.0 0.00 0.01 0.00 67
20181021061509 34 5 4.0 12.0 0.00 0.01 0.00 68
20181021060005 34 229 3.0 16.0 0.00 0.01 0.00 71
20181021054715 34 309 4.0 17.0 0.00 0.04 0.00 70
20181021053134 34 31 5.0 17.0 0.00 0.04 0.00 70
20181021051627 34 308 4.0 12.0 0.00 0.04 0.00 73